Time,TemperatureF,DewpointF,PressureIn,WindDirection,WindDirectionDegrees,WindSpeedMPH,WindSpeedGustMPH,Humidity,HourlyPrecipIn,Conditions,Clouds,dailyrainin,SolarRadiationWatts/m^2,SoftwareType,DateUTC
2013-03-08 00:11:00,26.0,26.0,-100.00,SSE,158,3.0,7.0,100,0.00,,,0.01,0.000000,,2013-03-08 08:11:00,
2013-03-08 00:21:00,26.0,26.0,-100.00,SSE,158,3.0,7.0,100,0.00,,,0.01,0.000000,,2013-03-08 08:21:00,
2013-03-08 00:31:00,26.0,26.0,-100.00,SSE,158,3.0,7.0,100,0.00,,,0.01,0.000000,,2013-03-08 08:31:00,
2013-03-08 00:41:00,26.0,26.0,-100.00,SSE,158,3.0,7.0,100,0.00,,,0.01,0.000000,,2013-03-08 08:41:00,
2013-03-08 00:51:00,26.0,26.0,-100.00,SE,143,3.0,9.0,100,0.00,,,0.01,0.000000,,2013-03-08 08:51:00,
2013-03-08 01:21:00,26.0,26.0,-100.00,SE,143,3.0,9.0,100,0.00,,,0.01,0.000000,,2013-03-08 09:21:00,
2013-03-08 01:32:00,26.0,26.0,-100.00,SE,143,3.0,9.0,100,0.00,,,0.01,0.000000,,2013-03-08 09:32:00,
2013-03-08 01:42:00,26.0,26.0,-100.00,SE,143,3.0,9.0,100,0.00,,,0.01,0.000000,,2013-03-08 09:42:00,
2013-03-08 01:51:00,26.0,26.0,-100.00,SE,131,4.0,8.0,100,0.00,,,0.01,0.000000,,2013-03-08 09:51:00,
2013-03-08 02:21:00,26.0,26.0,-100.00,SE,131,4.0,8.0,100,0.00,,,0.01,0.000000,,2013-03-08 10:21:00,
2013-03-08 02:31:00,26.0,26.0,-100.00,SE,131,4.0,8.0,100,0.00,,,0.01,0.000000,,2013-03-08 10:31:00,
2013-03-08 02:41:00,26.0,26.0,-100.00,SE,131,4.0,8.0,100,0.00,,,0.01,0.000000,,2013-03-08 10:41:00,
2013-03-08 02:51:00,26.0,26.0,-100.00,SSE,151,5.0,13.0,100,0.00,,,0.01,0.000000,,2013-03-08 10:51:00,
2013-03-08 03:21:00,26.0,26.0,-100.00,SSE,151,5.0,13.0,100,0.00,,,0.01,0.000000,,2013-03-08 11:21:00,
2013-03-08 03:32:00,26.0,26.0,-100.00,SSE,151,5.0,13.0,100,0.00,,,0.01,0.000000,,2013-03-08 11:32:00,
2013-03-08 03:41:00,26.0,26.0,-100.00,SSE,151,5.0,13.0,100,0.00,,,0.01,0.000000,,2013-03-08 11:41:00,
2013-03-08 03:51:00,25.0,25.0,-100.00,SSW,192,1.0,10.0,100,0.00,,,0.01,0.000000,,2013-03-08 11:51:00,
2013-03-08 04:11:00,25.0,25.0,-100.00,SSW,192,1.0,10.0,100,0.00,,,0.01,0.000000,,2013-03-08 12:11:00,
2013-03-08 04:22:00,25.0,25.0,-100.00,SSW,192,1.0,10.0,100,0.00,,,0.01,0.000000,,2013-03-08 12:22:00,
2013-03-08 04:32:00,25.0,25.0,-100.00,SSW,192,1.0,10.0,100,0.00,,,0.01,0.000000,,2013-03-08 12:32:00,
2013-03-08 04:42:00,25.0,25.0,-100.00,SSW,192,1.0,10.0,100,0.00,,,0.01,0.000000,,2013-03-08 12:42:00,
2013-03-08 04:51:00,25.0,25.0,-100.00,South,183,0.0,5.0,100,0.00,,,0.01,0.000000,,2013-03-08 12:51:00,
2013-03-08 05:11:00,25.0,25.0,-100.00,South,183,0.0,5.0,100,0.00,,,0.01,0.000000,,2013-03-08 13:11:00,
2013-03-08 05:21:00,25.0,25.0,-100.00,South,183,0.0,5.0,100,0.00,,,0.01,0.000000,,2013-03-08 13:21:00,
2013-03-08 05:32:00,25.0,25.0,-100.00,South,183,0.0,5.0,100,0.00,,,0.01,0.000000,,2013-03-08 13:32:00,
2013-03-08 05:42:00,25.0,25.0,-100.00,South,183,0.0,5.0,100,0.00,,,0.01,0.000000,,2013-03-08 13:42:00,
2013-03-08 05:51:00,22.0,22.0,-100.00,SW,226,0.0,6.0,100,0.00,,,0.01,0.000000,,2013-03-08 13:51:00,
2013-03-08 06:22:00,22.0,22.0,-100.00,SW,226,0.0,6.0,100,0.00,,,0.01,0.000000,,2013-03-08 14:22:00,
2013-03-08 06:32:00,22.0,22.0,-100.00,SW,226,0.0,6.0,100,0.00,,,0.01,0.000000,,2013-03-08 14:32:00,
2013-03-08 06:42:00,22.0,22.0,-100.00,SW,226,0.0,6.0,100,0.00,,,0.01,0.000000,,2013-03-08 14:42:00,
2013-03-08 06:51:00,22.0,22.0,-100.00,WSW,244,2.0,6.0,100,0.00,,,0.01,2.000000,,2013-03-08 14:51:00,
2013-03-08 07:11:00,22.0,22.0,-100.00,WSW,244,2.0,6.0,100,0.00,,,0.01,2.000000,,2013-03-08 15:11:00,
2013-03-08 07:22:00,22.0,22.0,-100.00,WSW,244,2.0,6.0,100,0.00,,,0.01,2.000000,,2013-03-08 15:22:00,
2013-03-08 07:32:00,22.0,22.0,-100.00,WSW,244,2.0,6.0,100,0.00,,,0.01,2.000000,,2013-03-08 15:32:00,
2013-03-08 07:42:00,22.0,22.0,-100.00,WSW,244,2.0,6.0,100,0.00,,,0.01,2.000000,,2013-03-08 15:42:00,
2013-03-08 07:51:00,22.0,22.0,-100.00,NW,310,4.0,9.0,100,0.00,,,0.01,26.000000,,2013-03-08 15:51:00,
2013-03-08 08:11:00,22.0,22.0,-100.00,NW,310,4.0,9.0,100,0.00,,,0.01,26.000000,,2013-03-08 16:11:00,
2013-03-08 08:21:00,22.0,22.0,-100.00,NW,310,4.0,9.0,100,0.00,,,0.01,26.000000,,2013-03-08 16:21:00,
2013-03-08 08:31:00,22.0,22.0,-100.00,NW,310,4.0,9.0,100,0.00,,,0.01,26.000000,,2013-03-08 16:31:00,
2013-03-08 08:41:00,22.0,22.0,-100.00,NW,310,4.0,9.0,100,0.00,,,0.01,26.000000,,2013-03-08 16:41:00,
2013-03-08 08:51:00,22.0,22.0,-100.00,NW,312,1.0,10.0,100,0.00,,,0.01,50.000000,,2013-03-08 16:51:00,
2013-03-08 09:21:00,22.0,22.0,-100.00,NW,312,1.0,10.0,100,0.00,,,0.01,50.000000,,2013-03-08 17:21:00,
2013-03-08 09:32:00,22.0,22.0,-100.00,NW,312,1.0,10.0,100,0.00,,,0.01,50.000000,,2013-03-08 17:32:00,
2013-03-08 09:41:00,22.0,22.0,-100.00,NW,312,1.0,10.0,100,0.00,,,0.01,50.000000,,2013-03-08 17:41:00,
2013-03-08 09:51:00,23.0,23.0,-100.00,WNW,301,1.0,7.0,100,0.00,,,-99.99,50.000000,,2013-03-08 17:51:00,
2013-03-08 10:21:00,23.0,23.0,-100.00,WNW,301,1.0,7.0,100,0.00,,,-99.99,50.000000,,2013-03-08 18:21:00,
2013-03-08 10:31:00,23.0,23.0,-100.00,WNW,301,1.0,7.0,100,0.00,,,-99.99,50.000000,,2013-03-08 18:31:00,
2013-03-08 10:42:00,23.0,23.0,-100.00,WNW,301,1.0,7.0,100,0.00,,,-99.99,50.000000,,2013-03-08 18:42:00,
2013-03-08 10:51:00,26.0,26.0,-100.00,NW,310,3.0,9.0,100,0.00,,,0.00,106.000000,,2013-03-08 18:51:00,
2013-03-08 11:11:00,26.0,26.0,-100.00,NW,310,3.0,9.0,100,0.00,,,0.00,106.000000,,2013-03-08 19:11:00,
2013-03-08 11:21:00,26.0,26.0,-100.00,NW,310,3.0,9.0,100,0.00,,,0.00,106.000000,,2013-03-08 19:21:00,
2013-03-08 11:32:00,26.0,26.0,-100.00,NW,310,3.0,9.0,100,0.00,,,0.00,106.000000,,2013-03-08 19:32:00,
2013-03-08 11:41:00,26.0,26.0,-100.00,NW,310,3.0,9.0,100,0.00,,,0.00,106.000000,,2013-03-08 19:41:00,
2013-03-08 11:51:00,27.0,27.0,-100.00,NW,317,7.0,11.0,100,0.00,,,0.00,164.000000,,2013-03-08 19:51:00,
2013-03-08 12:21:00,27.0,27.0,-100.00,NW,317,7.0,11.0,100,0.00,,,0.00,164.000000,,2013-03-08 20:21:00,
2013-03-08 12:32:00,27.0,27.0,-100.00,NW,317,7.0,11.0,100,0.00,,,0.00,164.000000,,2013-03-08 20:32:00,
2013-03-08 12:41:00,27.0,27.0,-100.00,NW,317,7.0,11.0,100,0.00,,,0.00,164.000000,,2013-03-08 20:41:00,
2013-03-08 12:51:00,27.0,27.0,-100.00,NNW,328,7.0,15.0,100,0.00,,,0.00,215.000000,,2013-03-08 20:51:00,
2013-03-08 13:11:00,27.0,27.0,-100.00,NNW,328,7.0,15.0,100,0.00,,,0.00,215.000000,,2013-03-08 21:11:00,
2013-03-08 13:21:00,27.0,27.0,-100.00,NNW,328,7.0,15.0,100,0.00,,,0.00,215.000000,,2013-03-08 21:21:00,
2013-03-08 13:32:00,27.0,27.0,-100.00,NNW,328,7.0,15.0,100,0.00,,,0.00,215.000000,,2013-03-08 21:32:00,
2013-03-08 13:41:00,27.0,27.0,-100.00,NNW,328,7.0,15.0,100,0.00,,,0.00,215.000000,,2013-03-08 21:41:00,
2013-03-08 13:51:00,25.0,25.0,-100.00,NW,324,7.0,15.0,99,0.00,,,0.00,163.000000,,2013-03-08 21:51:00,
2013-03-08 14:11:00,25.0,25.0,-100.00,NW,324,7.0,15.0,99,0.00,,,0.00,163.000000,,2013-03-08 22:11:00,
2013-03-08 14:21:00,25.0,25.0,-100.00,NW,324,7.0,15.0,99,0.00,,,0.00,163.000000,,2013-03-08 22:21:00,
2013-03-08 14:32:00,25.0,25.0,-100.00,NW,324,7.0,15.0,99,0.00,,,0.00,163.000000,,2013-03-08 22:32:00,
2013-03-08 14:41:00,25.0,25.0,-100.00,NW,324,7.0,15.0,99,0.00,,,0.00,163.000000,,2013-03-08 22:41:00,
2013-03-08 14:51:00,24.0,24.0,-100.00,NW,318,9.0,18.0,100,0.00,,,0.00,114.000000,,2013-03-08 22:51:00,
2013-03-08 15:11:00,24.0,24.0,-100.00,NW,318,9.0,18.0,100,0.00,,,0.00,114.000000,,2013-03-08 23:11:00,
2013-03-08 15:21:00,24.0,24.0,-100.00,NW,318,9.0,18.0,100,0.00,,,0.00,114.000000,,2013-03-08 23:21:00,
2013-03-08 15:32:00,24.0,24.0,-100.00,NW,318,9.0,18.0,100,0.00,,,0.00,114.000000,,2013-03-08 23:32:00,
2013-03-08 15:41:00,24.0,24.0,-100.00,NW,318,9.0,18.0,100,0.00,,,0.00,114.000000,,2013-03-08 23:41:00,
2013-03-08 15:51:00,24.0,24.0,-100.00,NNW,327,9.0,21.0,100,0.00,,,0.00,66.000000,,2013-03-08 23:51:00,
2013-03-08 16:11:00,24.0,24.0,-100.00,NNW,327,9.0,21.0,100,0.00,,,0.00,66.000000,,2013-03-09 00:11:00,
2013-03-08 16:21:00,24.0,24.0,-100.00,NNW,327,9.0,21.0,100,0.00,,,0.00,66.000000,,2013-03-09 00:21:00,
2013-03-08 16:31:00,24.0,24.0,-100.00,NNW,327,9.0,21.0,100,0.00,,,0.00,66.000000,,2013-03-09 00:31:00,
2013-03-08 16:42:00,24.0,24.0,-100.00,NNW,327,9.0,21.0,100,0.00,,,0.00,66.000000,,2013-03-09 00:42:00,
2013-03-08 16:51:00,24.0,24.0,-100.00,NW,322,10.0,24.0,100,0.00,,,0.00,38.000000,,2013-03-09 00:51:00,
2013-03-08 17:21:00,24.0,24.0,-100.00,NW,322,10.0,24.0,100,0.00,,,0.00,38.000000,,2013-03-09 01:21:00,
2013-03-08 17:31:00,24.0,24.0,-100.00,NW,322,10.0,24.0,100,0.00,,,0.00,38.000000,,2013-03-09 01:31:00,
2013-03-08 17:41:00,24.0,24.0,-100.00,NW,322,10.0,24.0,100,0.00,,,0.00,38.000000,,2013-03-09 01:41:00,
2013-03-08 18:51:00,23.0,23.0,-100.00,NNW,340,4.0,16.0,100,-99.99,,,0.00,0.000000,,2013-03-09 02:51:00,
2013-03-08 19:11:00,23.0,23.0,-100.00,NNW,340,4.0,16.0,100,-99.99,,,0.00,0.000000,,2013-03-09 03:11:00,
2013-03-08 19:21:00,23.0,23.0,-100.00,NNW,340,4.0,16.0,100,-99.99,,,0.00,0.000000,,2013-03-09 03:21:00,
2013-03-08 19:31:00,23.0,23.0,-100.00,NNW,340,4.0,16.0,100,-99.99,,,0.00,0.000000,,2013-03-09 03:31:00,
2013-03-08 19:41:00,23.0,23.0,-100.00,NNW,340,4.0,16.0,100,-99.99,,,0.00,0.000000,,2013-03-09 03:41:00,
2013-03-08 19:51:00,23.0,23.0,-100.00,NNW,333,5.0,11.0,100,0.00,,,0.00,0.000000,,2013-03-09 03:51:00,
2013-03-08 20:11:00,23.0,23.0,-100.00,NNW,333,5.0,11.0,100,0.00,,,0.00,0.000000,,2013-03-09 04:11:00,
2013-03-08 20:22:00,23.0,23.0,-100.00,NNW,333,5.0,11.0,100,0.00,,,0.00,0.000000,,2013-03-09 04:22:00,
2013-03-08 20:31:00,23.0,23.0,-100.00,NNW,333,5.0,11.0,100,0.00,,,0.00,0.000000,,2013-03-09 04:31:00,
2013-03-08 20:41:00,23.0,23.0,-100.00,NNW,333,5.0,11.0,100,0.00,,,0.00,0.000000,,2013-03-09 04:41:00,
2013-03-08 20:51:00,23.0,23.0,-100.00,NNW,336,6.0,13.0,100,0.00,,,0.00,0.000000,,2013-03-09 04:51:00,
2013-03-08 21:21:00,23.0,23.0,-100.00,NNW,336,6.0,13.0,100,0.00,,,0.00,0.000000,,2013-03-09 05:21:00,
2013-03-08 21:31:00,23.0,23.0,-100.00,NNW,336,6.0,13.0,100,0.00,,,0.00,0.000000,,2013-03-09 05:31:00,
2013-03-08 21:42:00,23.0,23.0,-100.00,NNW,336,6.0,13.0,100,0.00,,,0.00,0.000000,,2013-03-09 05:42:00,
2013-03-08 21:51:00,24.0,24.0,-100.00,NNW,328,3.0,12.0,100,0.00,,,0.00,0.000000,,2013-03-09 05:51:00,
2013-03-08 22:22:00,24.0,24.0,-100.00,NNW,328,3.0,12.0,100,0.00,,,0.00,0.000000,,2013-03-09 06:22:00,
2013-03-08 22:31:00,24.0,24.0,-100.00,NNW,328,3.0,12.0,100,0.00,,,0.00,0.000000,,2013-03-09 06:31:00,
2013-03-08 22:42:00,24.0,24.0,-100.00,NNW,328,3.0,12.0,100,0.00,,,0.00,0.000000,,2013-03-09 06:42:00,
2013-03-08 22:51:00,25.0,25.0,-100.00,NNW,334,3.0,9.0,100,0.00,,,0.00,0.000000,,2013-03-09 06:51:00,
2013-03-08 23:11:00,25.0,25.0,-100.00,NNW,334,3.0,9.0,100,0.00,,,0.00,0.000000,,2013-03-09 07:11:00,
2013-03-08 23:21:00,25.0,25.0,-100.00,NNW,334,3.0,9.0,100,0.00,,,0.00,0.000000,,2013-03-09 07:21:00,
2013-03-08 23:31:00,25.0,25.0,-100.00,NNW,334,3.0,9.0,100,0.00,,,0.00,0.000000,,2013-03-09 07:31:00,
2013-03-08 23:41:00,25.0,25.0,-100.00,NNW,334,3.0,9.0,100,0.00,,,0.00,0.000000,,2013-03-09 07:41:00,
2013-03-08 23:51:00,25.0,25.0,-100.00,NW,323,2.0,8.0,100,0.00,,,0.00,0.000000,,2013-03-09 07:51:00,